#timestamp,LO_Frequency,Hit,StdDev 
1611097215.6,286047004.6,P
1611097235.4,286047006.4,P
1611097255.2,286047008.8,P
1611097275.1,286047010.3,Y
1611097276.0,286047010.3,P
1611097295.8,286047001.4,N
1611097315.7,286046999.9,N
1611097335.5,286046999.2,N
1611097355.3,286046999.5,N
1611097375.2,286046997.3,N
1611097395.0,286046995.0,N
1611097395.9,286046995.0,N
1611097415.8,286046995.7,N
1611097435.6,286046997.3,N
1611097455.4,286046995.4,N
1611097475.3,286046996.3,N
1611097495.1,286046995.2,N
1611097515.8,286046994.3,N
1611097565.7,286046992.8,E
1611097575.6,286046994.5,N
1611097595.5,286046998.4,P
1611097615.3,286046995.4,N
1611097635.2,286046995.9,N
1611097655.9,286046995.8,N
1611097675.7,286046993.5,Y
1611097695.6,286047002.3,P
1611097715.4,286047002.7,N
1611097735.2,286046998.1,N
1611097755.1,286047000.5,N
1611097756.0,286047000.5,N
1611097775.8,286046999.9,N
1611097795.7,286047004.4,N
1611097815.5,286047001.2,N
1611097835.3,286046998.7,N
1611097855.2,286046996.4,N
1611097875.0,286046993.4,N
1611097875.9,286046993.4,N
1611097895.8,286046994.0,N
1611097915.6,286046993.2,N
1611097935.4,286046991.5,N
1611097955.3,286046987.2,Y
1611097975.1,286046988.2,P
1611097995.8,286046988.1,N
1611098015.7,286046985.9,P
1611098035.5,286046986.3,N
1611098055.4,286046987.2,N
1611098075.2,286046985.8,Y
1611098095.0,286046999.0,P
1611098095.9,286046999.0,N
1611098115.8,286046999.1,N
1611098135.6,286046995.1,N
1611098155.5,286046996.1,N
1611098175.3,286046995.2,N
1611098195.1,286046995.9,N
1611098215.9,286046994.0,N
1611098235.7,286046993.7,N
1611098255.5,286046991.8,N
1611098275.4,286046992.3,N
1611098295.2,286046992.9,N
1611098315.1,286046992.9,N
1611098316.0,286046992.9,N
1611098335.8,286046994.5,N
1611098355.6,286046993.5,N
1611098405.5,286046992.3,E
1611098415.4,286046995.7,N
1611098435.3,286046998.5,P
1611098455.1,286046996.6,N
1611098475.8,286046996.9,N
1611098495.7,286046996.6,Y
1611098515.5,286046998.3,P
1611098535.4,286046998.9,N
1611098555.2,286046998.3,N
1611098575.0,286047001.1,N
1611098575.9,286047001.1,N
1611098595.8,286047002.8,N
1611098615.6,286047001.6,N
1611098635.5,286047002.2,N
1611098655.3,286046999.9,N
1611098675.1,286047000.0,N
1611098695.9,286047001.2,N
1611098715.7,286046998.2,N
1611098735.5,286046998.1,N
1611098755.4,286047000.6,N
1611098775.2,286047000.6,N
1611098795.1,286046999.3,N
1611098796.0,286046999.3,N
1611098815.8,286046998.8,N
1611098835.6,286046999.6,N
1611098855.5,286046997.9,N
1611098875.3,286046994.9,Y
1611098895.2,286046995.3,P
1611098915.9,286046995.2,N
1611098935.7,286046997.1,N
1611098955.6,286046996.9,N
1611098975.4,286046996.9,N
1611098995.2,286046997.8,N
1611099015.1,286046995.6,Y
1611099016.0,286046995.6,P
1611099035.8,286047001.2,N
1611099055.7,286047000.8,N
1611099075.5,286047000.9,N
1611099095.3,286046999.8,N
1611099115.2,286047002.1,N
1611099135.0,286047000.3,N
1611099135.9,286047000.3,N
1611099155.8,286047001.2,N
1611099175.6,286047000.7,N
1611099195.4,286046998.2,N
1611099215.3,286046998.4,N
1611099235.1,286047001.2,N
1611099255.8,286046999.1,N
1611099275.7,286046998.6,N
1611099295.5,286047001.2,N
1611099315.4,286047001.1,N
1611099335.2,286046998.8,N
1611099355.0,286046998.4,N
1611099355.9,286046998.4,N
1611099375.8,286047000.5,N
1611099395.6,286046999.3,N
1611099415.4,286046998.5,N
1611099435.3,286046999.1,N
1611099455.1,286046996.6,N
1611099475.9,286046997.8,N
1611099495.7,286046996.8,N
1611099515.5,286046997.3,N
1611099535.4,286046997.6,N
1611099555.2,286046996.5,N
1611099575.0,286046996.7,N
1611099576.0,286046996.7,N
1611099595.8,286046997.4,N
1611099615.6,286046997.6,N
1611099635.5,286046997.3,N
1611099655.3,286046999.2,N
1611099675.1,286046997.9,N
1611099695.9,286046997.8,N
1611099715.7,286046997.9,N
1611099735.6,286046997.6,N
1611099755.4,286046995.0,Y
1611099775.2,286047000.8,P
1611099795.1,286047001.2,N
1611099796.0,286047001.2,N
1611099815.8,286046998.4,N
1611099835.6,286046999.6,N
1611099855.5,286046996.2,Y
1611099875.3,286046993.7,P
1611099895.2,286046995.9,N
1611099915.0,286046998.0,N
1611099915.9,286046998.0,N
1611099935.7,286046997.3,N
1611099955.6,286046999.4,N
1611099975.4,286046998.9,N
1611099995.3,286047000.5,N
1611100015.1,286047000.7,N
1611100016.0,286047000.7,N
1611100035.8,286046998.4,N
1611100055.7,286047000.3,N
1611100075.5,286047002.6,N
1611100095.4,286047001.1,N
1611100115.2,286046998.3,N
1611100135.0,286046998.4,N
1611100135.9,286046998.4,N
1611100155.8,286046999.3,N
1611100175.6,286046999.1,N
1611100195.4,286046997.5,N
1611100215.3,286046997.6,N
1611100235.1,286046997.7,N
1611100255.9,286046997.2,N
1611100275.7,286046996.9,N
1611100295.5,286046995.1,N
1611100315.4,286046996.0,N
1611100335.2,286046995.0,N
1611100355.0,286046997.1,N
1611100356.0,286046997.1,N
1611100375.8,286046996.9,N
1611100395.6,286046997.0,N
1611100415.5,286046997.3,N
1611100435.3,286046994.9,N
1611100455.1,286046995.2,N
1611100475.9,286046997.7,N
1611100495.7,286046994.9,N
1611100515.6,286046996.9,N
1611100535.4,286046998.7,N
1611100555.2,286047000.4,N
1611100575.1,286046998.5,N
1611100576.0,286046998.5,N
1611100595.8,286046998.3,N
1611100615.7,286046998.3,N
1611100635.5,286047000.8,N
1611100655.3,286046998.2,N
1611100675.2,286046996.5,N
1611100695.0,286046997.1,N
1611100695.9,286046997.1,N
1611100715.7,286046996.8,N
1611100735.6,286046999.4,N
1611100755.4,286046997.0,N
1611100775.3,286046997.0,N
1611100795.1,286046997.6,N
